KG5TTF Weather Reports


time (UTC)temp
C
wind
direction
speed
KPH
gust
KPH
rain 1hr
cm
rain 24hr
cm
rain mn
cm
humidity
%
barometer
mb
20260906214221 30 34 0.0 0.0 0.00 0.00 0.00 35 1023.0
20260906213719 30 80 0.0 0.0 0.00 0.00 0.00 35 1023.0
20260906213214 31 78 0.0 0.0 0.00 0.00 0.00 35 1023.1
20260906212711 31 328 0.0 0.0 0.00 0.00 0.00 34 1023.3
20260906212207 31 100 0.0 0.0 0.00 0.00 0.00 35 1023.3
20260906211707 32 166 0.0 0.0 0.00 0.00 0.00 32 1023.3
20260906211202 31 15 0.0 0.0 0.00 0.00 0.00 33 1023.2
20260906210657 31 327 0.0 0.0 0.00 0.00 0.00 37 1023.5
20260906210157 31 179 0.0 0.0 0.00 0.00 0.00 36 1023.5
20260906205652 31 117 0.0 0.0 0.00 0.00 0.00 33 1023.7
20260906205149 31 149 1.6 9.7 0.00 0.00 0.00 33 1023.5
20260906204648 31 265 0.0 0.0 0.00 0.00 0.00 35 1023.7
20260906204143 31 206 0.0 1.6 0.00 0.00 0.00 31 1023.6
20260906203643 31 79 0.0 0.0 0.00 0.00 0.00 32 1023.3
20260906203138 30 97 0.0 0.0 0.00 0.00 0.00 35 1023.7
20260906202635 31 177 0.0 0.0 0.00 0.00 0.00 31 1023.8
20260906202134 31 347 0.0 0.0 0.00 0.00 0.00 35 1023.9
20260906201630 30 144 0.0 0.0 0.00 0.00 0.00 33 1023.9
20260906201128 31 202 0.0 0.0 0.00 0.00 0.00 33 1024.1
20260906200625 31 202 0.0 0.0 0.00 0.00 0.00 34 1024.1
20260906200121 30 106 0.0 0.0 0.00 0.00 0.00 33 1023.8
20260906195621 31 63 0.0 0.0 0.00 0.00 0.00 32 1024.1
20260906195117 30 153 0.0 0.0 0.00 0.00 0.00 32 1024.1
20260906194613 30 173 0.0 0.0 0.00 0.00 0.00 33 1024.1
20260906194109 31 165 0.0 0.0 0.00 0.00 0.00 32 1024.4
20260906193609 30 21 0.0 0.0 0.00 0.00 0.00 33 1024.4
20260906193104 30 222 0.0 0.0 0.00 0.00 0.00 34 1024.4
20260906192559 30 184 0.0 0.0 0.00 0.00 0.00 34 1024.6
20260906192058 30 17 0.0 0.0 0.00 0.00 0.00 35 1024.6
20260906191554 30 44 0.0 0.0 0.00 0.00 0.00 35 1024.4
20260906191053 30 85 0.0 0.0 0.00 0.00 0.00 34 1024.4
20260906190552 30 63 0.0 0.0 0.00 0.00 0.00 34 1024.6
20260906190047 30 55 0.0 0.0 0.00 0.00 0.00 33 1024.7
20260906185546 30 66 0.0 0.0 0.00 0.00 0.00 35 1024.7
20260906185045 29 44 0.0 0.0 0.00 0.00 0.00 36 1025.2
20260906184540 30 8 0.0 0.0 0.00 0.00 0.00 35 1025.2
20260906184036 30 35 0.0 0.0 0.00 0.00 0.00 37 1025.3
20260906183532 29 174 0.0 0.0 0.00 0.00 0.00 36 1025.3
20260906183027 30 66 0.0 0.0 0.00 0.00 0.00 34 1025.4
20260906182522 29 145 0.0 0.0 0.00 0.00 0.00 34 1025.8
20260906182019 29 23 0.0 0.0 0.00 0.00 0.00 36 1025.8
20260906181514 28 63 0.0 0.0 0.00 0.00 0.00 36 1025.8
20260906181009 28 53 0.0 0.0 0.00 0.00 0.00 35 1025.9
20260906180504 28 46 0.0 0.0 0.00 0.00 0.00 35 1026.3
20260906180002 28 30 0.0 0.0 0.00 0.00 0.00 36 1025.9
20260906175457 27 51 0.0 0.0 0.00 0.00 0.00 36 1026.3
20260906174956 27 47 0.0 0.0 0.00 0.00 0.00 36 1026.1
20260906174449 28 18 0.0 0.0 0.00 0.00 0.00 36 1026.1
20260906173945 27 41 0.0 0.0 0.00 0.00 0.00 36 1026.6
20260906173440 27 35 0.0 0.0 0.00 0.00 0.00 37 1026.3
20260906172939 27 346 0.0 0.0 0.00 0.00 0.00 36 1026.4
20260906172436 27 43 0.0 0.0 0.00 0.00 0.00 37 1026.5
20260906171930 27 105 0.0 0.0 0.00 0.00 0.00 36 1026.6
20260906171425 27 48 0.0 0.0 0.00 0.00 0.00 35 1026.7
20260906170921 26 54 0.0 0.0 0.00 0.00 0.00 37 1026.5
20260906170417 27 26 0.0 0.0 0.00 0.00 0.00 37 1026.6
20260906165913 27 20 0.0 0.0 0.00 0.00 0.00 39 1026.6
20260906165412 27 315 0.0 0.0 0.00 0.00 0.00 36 1026.6
20260906164907 26 15 0.0 0.0 0.00 0.00 0.00 38 1026.6
20260906164406 25 36 0.0 0.0 0.00 0.00 0.00 38 1026.7
20260906163902 25 56 0.0 0.0 0.00 0.00 0.00 39 1026.7
20260906163358 25 15 0.0 0.0 0.00 0.00 0.00 40 1026.9
20260906162856 25 53 0.0 0.0 0.00 0.00 0.00 39 1026.9
20260906162349 25 12 0.0 0.0 0.00 0.00 0.00 43 1027.0
20260906161844 24 15 0.0 0.0 0.00 0.00 0.00 43 1026.9
20260906161343 24 349 0.0 0.0 0.00 0.00 0.00 41 1027.0
20260906160837 23 320 0.0 0.0 0.00 0.00 0.00 43 1026.7
20260906160331 23 22 0.0 0.0 0.00 0.00 0.00 45 1026.7
20260906155829 22 341 0.0 0.0 0.00 0.00 0.00 48 1026.6
20260906155323 22 349 0.0 0.0 0.00 0.00 0.00 50 1026.5
20260906154820 22 13 0.0 0.0 0.00 0.00 0.00 48 1026.6
20260906154314 22 20 0.0 0.0 0.00 0.00 0.00 50 1026.9
20260906153812 22 58 0.0 0.0 0.00 0.00 0.00 48 1027.0
20260906153307 21 348 0.0 0.0 0.00 0.00 0.00 50 1026.9
20260906152802 21 15 0.0 0.0 0.00 0.00 0.00 53 1027.0
20260906152257 21 7 0.0 0.0 0.00 0.00 0.00 55 1027.0
20260906151756 20 315 0.0 0.0 0.00 0.00 0.00 56 1026.9
20260906151252 20 7 0.0 0.0 0.00 0.00 0.00 58 1026.9
20260906150747 20 313 0.0 0.0 0.00 0.00 0.00 59 1027.0
20260906150243 20 321 0.0 0.0 0.00 0.00 0.00 62 1027.0
20260906145741 20 3 0.0 0.0 0.00 0.00 0.00 63 1026.9
20260906145240 19 358 0.0 0.0 0.00 0.00 0.00 63 1026.7
20260906144736 19 356 0.0 0.0 0.00 0.00 0.00 66 1026.6
20260906144230 18 2 0.0 0.0 0.00 0.00 0.00 66 1026.6
20260906143730 18 9 0.0 0.0 0.00 0.00 0.00 66 1026.6
20260906143227 18 23 0.0 0.0 0.00 0.00 0.00 67 1026.6
20260906142726 18 348 0.0 0.0 0.00 0.00 0.00 67 1026.5
20260906142222 18 353 0.0 0.0 0.00 0.00 0.00 68 1026.5
20260906141721 18 3 0.0 0.0 0.00 0.00 0.00 68 1026.6
20260906141215 17 32 0.0 0.0 0.00 0.00 0.00 69 1026.6
20260906140715 17 331 0.0 0.0 0.00 0.00 0.00 69 1026.7
20260906140210 17 290 0.0 0.0 0.00 0.00 0.00 70 1026.7
20260906135707 17 3 0.0 0.0 0.00 0.00 0.00 69 1026.7
20260906135203 17 9 0.0 0.0 0.00 0.00 0.00 69 1026.5
20260906134658 17 335 0.0 0.0 0.00 0.00 0.00 67 1026.5
20260906134153 16 354 0.0 0.0 0.00 0.00 0.00 67 1026.4
20260906133649 16 266 0.0 0.0 0.00 0.00 0.00 64 1026.3
20260906133143 16 341 0.0 0.0 0.00 0.00 0.00 64 1026.3
20260906132639 16 288 0.0 0.0 0.00 0.00 0.00 64 1025.9
20260906132129 16 275 0.0 0.0 0.00 0.00 0.00 64 1026.3
20260906131625 16 6 0.0 0.0 0.00 0.00 0.00 64 1025.9
20260906131120 15 318 0.0 0.0 0.00 0.00 0.00 65 1026.1
20260906130615 15 319 0.0 0.0 0.00 0.00 0.00 66 1026.0
20260906130115 15 7 0.0 0.0 0.00 0.00 0.00 65 1025.9
20260906125613 15 306 0.0 0.0 0.00 0.00 0.00 65 1026.0
20260906125106 15 15 0.0 0.0 0.00 0.00 0.00 65 1025.8
20260906124602 15 309 0.0 0.0 0.00 0.00 0.00 65 1026.3
20260906124057 15 354 0.0 0.0 0.00 0.00 0.00 64 1026.3
20260906123556 15 356 0.0 0.0 0.00 0.00 0.00 65 1026.1
20260906123052 15 2 0.0 0.0 0.00 0.00 0.00 64 1026.1
20260906122550 15 8 0.0 0.0 0.00 0.00 0.00 63 1026.3
20260906122047 16 292 0.0 0.0 0.00 0.00 0.00 62 1026.1
20260906121543 15 287 0.0 0.0 0.00 0.00 0.00 62 1025.7
20260906121039 16 336 0.0 0.0 0.00 0.00 0.00 62 1026.0
20260906120534 16 2 0.0 0.0 0.00 0.00 0.00 61 1025.7
20260906120031 16 339 0.0 0.0 0.00 0.00 0.00 61 1026.0
20260906115531 16 293 0.0 0.0 0.00 0.00 0.00 61 1025.9
20260906115026 16 311 0.0 0.0 0.00 0.00 0.00 61 1025.8
20260906114525 16 8 0.0 0.0 0.00 0.00 0.00 61 1025.8
20260906114021 16 359 0.0 0.0 0.00 0.00 0.00 60 1025.8
20260906113520 16 15 0.0 0.0 0.00 0.00 0.00 60 1025.7
20260906113016 16 321 0.0 1.6 0.00 0.00 0.00 61 1025.7
20260906112510 16 355 0.0 0.0 0.00 0.00 0.00 60 1025.8
20260906112007 17 4 0.0 0.0 0.00 0.00 0.00 59 1025.8
20260906111506 17 312 0.0 0.0 0.00 0.00 0.00 58 1025.5
20260906111001 17 284 0.0 0.0 0.00 0.00 0.00 58 1025.7
20260906110456 17 3 0.0 0.0 0.00 0.00 0.00 57 1025.8
20260906105955 17 335 0.0 0.0 0.00 0.00 0.00 56 1025.7
20260906105451 17 5 0.0 0.0 0.00 0.00 0.00 55 1025.5
20260906104947 17 8 0.0 0.0 0.00 0.00 0.00 57 1025.5
20260906104445 17 353 0.0 0.0 0.00 0.00 0.00 56 1025.4
20260906103944 17 328 0.0 0.0 0.00 0.00 0.00 56 1025.7
20260906103443 17 7 0.0 0.0 0.00 0.00 0.00 54 1025.5
20260906102938 17 2 0.0 0.0 0.00 0.00 0.00 53 1025.8
20260906102433 17 11 0.0 0.0 0.00 0.00 0.00 53 1025.7
20260906101933 17 345 0.0 0.0 0.00 0.00 0.00 54 1025.8
20260906101429 17 10 0.0 0.0 0.00 0.00 0.00 56 1025.8
20260906100924 17 10 0.0 0.0 0.00 0.00 0.00 55 1025.9
20260906100423 17 10 0.0 0.0 0.00 0.00 0.00 54 1025.7
20260906095918 17 11 0.0 0.0 0.00 0.00 0.00 53 1025.9
20260906095414 18 11 0.0 0.0 0.00 0.00 0.00 52 1025.7
20260906094914 18 10 0.0 0.0 0.00 0.00 0.00 51 1025.4
20260906094408 18 7 0.0 0.0 0.00 0.00 0.00 52 1025.5
20260906093859 18 356 0.0 0.0 0.00 0.00 0.00 51 1025.4
20260906093355 18 338 0.0 0.0 0.00 0.00 0.00 52 1025.5
20260906092855 18 10 0.0 0.0 0.00 0.00 0.00 52 1025.7
20260906092354 18 2 0.0 0.0 0.00 0.00 0.00 51 1025.4
20260906091850 18 13 0.0 0.0 0.00 0.00 0.00 51 1025.4
20260906091346 18 1 0.0 0.0 0.00 0.00 0.00 53 1025.3
20260906090843 18 2 0.0 0.0 0.00 0.00 0.00 53 1025.3
20260906090342 18 11 0.0 0.0 0.00 0.00 0.00 53 1025.3
20260906085836 18 9 0.0 0.0 0.00 0.00 0.00 55 1025.5
20260906085329 18 341 0.0 0.0 0.00 0.00 0.00 55 1025.3
20260906084824 18 348 0.0 0.0 0.00 0.00 0.00 55 1025.3
20260906084324 18 347 0.0 0.0 0.00 0.00 0.00 54 1025.4
20260906083814 18 293 0.0 0.0 0.00 0.00 0.00 55 1025.7
20260906083309 17 6 0.0 0.0 0.00 0.00 0.00 59 1025.4
20260906082809 18 86 0.0 0.0 0.00 0.00 0.00 57 1025.7
20260906082306 17 349 0.0 0.0 0.00 0.00 0.00 58 1025.8
20260906081759 17 349 0.0 0.0 0.00 0.00 0.00 57 1025.8
20260906081255 17 349 0.0 0.0 0.00 0.00 0.00 57 1025.8
20260906080752 17 349 0.0 0.0 0.00 0.00 0.00 57 1025.9
20260906080248 17 349 0.0 0.0 0.00 0.00 0.00 56 1025.9
20260906075748 17 349 0.0 0.0 0.00 0.00 0.00 55 1025.8
20260906075247 17 349 0.0 0.0 0.00 0.00 0.00 55 1025.9
20260906074743 18 349 0.0 0.0 0.00 0.00 0.00 54 1025.8
20260906074242 18 349 0.0 0.0 0.00 0.00 0.00 53 1025.8
20260906073742 18 349 0.0 0.0 0.00 0.00 0.00 53 1025.8
20260906073237 18 352 0.0 0.0 0.00 0.00 0.00 53 1025.8
20260906072732 18 352 0.0 0.0 0.00 0.00 0.00 52 1025.8
20260906072228 18 354 0.0 0.0 0.00 0.00 0.00 50 1025.5
20260906071724 19 13 0.0 0.0 0.00 0.00 0.00 49 1025.7
20260906071224 20 334 0.0 0.0 0.00 0.00 0.00 48 1025.7
20260906070720 20 355 0.0 0.0 0.00 0.00 0.00 46 1025.5
20260906070216 20 281 0.0 0.0 0.00 0.00 0.00 46 1025.4
20260906065715 20 6 0.0 0.0 0.00 0.00 0.00 48 1025.4
20260906065211 20 21 0.0 0.0 0.00 0.00 0.00 47 1025.5
20260906064706 20 297 0.0 0.0 0.00 0.00 0.00 47 1025.5
20260906064201 20 316 0.0 0.0 0.00 0.00 0.00 46 1025.5
20260906063656 20 329 0.0 0.0 0.00 0.00 0.00 45 1025.3
20260906063152 20 5 0.0 0.0 0.00 0.00 0.00 46 1025.5
20260906062648 20 7 0.0 0.0 0.00 0.00 0.00 45 1025.3
20260906062146 20 341 0.0 0.0 0.00 0.00 0.00 44 1025.5
20260906061643 21 352 0.0 0.0 0.00 0.00 0.00 44 1025.7
20260906061142 21 355 0.0 0.0 0.00 0.00 0.00 44 1025.7
20260906060639 21 1 0.0 0.0 0.00 0.00 0.00 43 1025.4
20260906060136 21 16 0.0 0.0 0.00 0.00 0.00 41 1025.7
20260906055631 21 346 0.0 0.0 0.00 0.00 0.00 41 1025.9
20260906055126 21 350 0.0 0.0 0.00 0.00 0.00 42 1025.8
20260906054621 21 358 0.0 0.0 0.00 0.00 0.00 42 1025.8
20260906054117 22 354 0.0 0.0 0.00 0.00 0.00 40 1025.7
20260906053613 21 21 0.0 0.0 0.00 0.00 0.00 41 1025.8
20260906053108 21 324 0.0 0.0 0.00 0.00 0.00 41 1025.7
20260906052604 22 22 0.0 0.0 0.00 0.00 0.00 39 1025.8
20260906052101 22 8 0.0 0.0 0.00 0.00 0.00 39 1025.8
20260906051556 22 311 0.0 0.0 0.00 0.00 0.00 38 1025.8
20260906051051 22 331 0.0 0.0 0.00 0.00 0.00 38 1025.8
20260906050546 23 9 0.0 0.0 0.00 0.00 0.00 36 1026.0
20260906050041 23 1 0.0 0.0 0.00 0.00 0.00 35 1026.0
20260906045539 23 9 0.0 0.0 0.00 0.00 0.00 35 1025.9
20260906045035 22 354 0.0 0.0 0.00 0.00 0.00 37 1025.9
20260906044531 22 5 0.0 0.0 0.00 0.00 0.00 39 1026.0
20260906044026 22 5 0.0 0.0 0.00 0.00 0.00 40 1026.3
20260906043521 22 111 0.0 0.0 0.00 0.00 0.00 41 1026.3
20260906043018 22 6 0.0 0.0 0.00 0.00 0.00 43 1026.0
20260906042516 22 331 0.0 0.0 0.00 0.00 0.00 43 1026.1
20260906042011 22 2 0.0 0.0 0.00 0.00 0.00 47 1026.1
20260906041508 22 4 0.0 0.0 0.00 0.00 0.00 51 1025.9
20260906041007 22 340 0.0 0.0 0.00 0.00 0.00 53 1026.0
20260906040502 23 339 0.0 0.0 0.00 0.00 0.00 53 1026.0
20260906035957 23 339 0.0 0.0 0.00 0.00 0.00 52 1026.1
20260906035452 23 309 0.0 0.0 0.00 0.00 0.00 52 1026.1
20260906034943 23 353 0.0 0.0 0.00 0.00 0.00 52 1026.5
20260906034443 23 3 0.0 0.0 0.00 0.00 0.00 51 1026.0
20260906033938 23 10 0.0 0.0 0.00 0.00 0.00 51 1026.3
20260906033439 23 7 0.0 0.0 0.00 0.00 0.00 50 1026.3
20260906032935 23 23 0.0 0.0 0.00 0.00 0.00 50 1026.1
20260906032431 23 22 0.0 0.0 0.00 0.00 0.00 48 1026.1
20260906031930 23 105 0.0 0.0 0.00 0.00 0.00 49 1026.1
20260906031426 23 104 0.0 0.0 0.00 0.00 0.00 47 1026.0
20260906030921 23 27 0.0 0.0 0.00 0.00 0.00 41 1026.1
20260906030415 23 48 0.0 0.0 0.00 0.00 0.00 38 1025.9
20260906025910 22 24 0.0 0.0 0.00 0.00 0.00 36 1025.4
20260906025404 22 115 0.0 0.0 0.00 0.00 0.00 33 1024.8
20260906024903 22 115 0.0 0.0 0.00 0.00 0.00 33 1024.7
20260906024402 22 115 0.0 0.0 0.00 0.00 0.00 33 1024.7
20260906023858 23 115 0.0 0.0 0.00 0.00 0.00 32 1024.6
20260906023355 23 115 0.0 0.0 0.00 0.00 0.00 32 1024.7
20260906022854 23 115 0.0 0.0 0.00 0.00 0.00 33 1024.4
20260906022349 23 115 0.0 0.0 0.00 0.00 0.00 32 1024.3
20260906021845 23 115 0.0 0.0 0.00 0.00 0.00 32 1024.4
20260906021344 24 115 0.0 0.0 0.00 0.00 0.00 32 1024.4
20260906020839 24 115 0.0 0.0 0.00 0.00 0.00 32 1024.4
20260906020338 25 115 0.0 0.0 0.00 0.00 0.00 32 1024.3
20260906015833 25 115 0.0 0.0 0.00 0.00 0.00 30 1024.3
20260906015332 25 115 0.0 0.0 0.00 0.00 0.00 30 1024.3
20260906014826 25 116 0.0 0.0 0.00 0.00 0.00 30 1024.3
20260906014321 25 81 0.0 0.0 0.00 0.00 0.00 30 1024.4
20260906013818 26 152 0.0 0.0 0.00 0.00 0.00 30 1024.2
20260906013314 26 152 0.0 0.0 0.00 0.00 0.00 29 1024.2
20260906012809 26 113 0.0 0.0 0.00 0.00 0.00 30 1024.1
20260906012309 26 272 0.0 0.0 0.00 0.00 0.00 30 1024.4
20260906011804 26 204 0.0 0.0 0.00 0.00 0.00 30 1024.2
20260906011258 27 206 0.0 0.0 0.00 0.00 0.00 28 1024.2
20260906010754 27 193 0.0 0.0 0.00 0.00 0.00 28 1024.3
20260906010250 27 183 0.0 0.0 0.00 0.00 0.00 28 1024.1
20260906005745 27 317 0.0 0.0 0.00 0.00 0.00 27 1024.1
20260906005244 28 215 0.0 0.0 0.00 0.00 0.00 27 1024.4
20260906004743 28 350 0.0 0.0 0.00 0.00 0.00 27 1024.4
20260906004238 28 226 0.0 0.0 0.00 0.00 0.00 26 1024.4
20260906003733 29 240 0.0 0.0 0.00 0.00 0.00 25 1024.4
20260906003229 30 150 0.0 0.0 0.00 0.00 0.00 25 1024.4
20260906002728 30 173 0.0 0.0 0.00 0.00 0.00 24 1024.1
20260906002223 30 181 0.0 0.0 0.00 0.00 0.00 23 1024.3
20260906001719 30 333 0.0 0.0 0.00 0.00 0.00 24 1024.3
20260906001219 29 204 0.0 0.0 0.00 0.00 0.00 25 1024.1
20260906000714 29 69 0.0 0.0 0.00 0.00 0.00 25 1024.1
20260906000211 30 127 0.0 0.0 0.00 0.00 0.00 25 1024.1
20260905235709 30 167 0.0 0.0 0.00 0.00 0.00 24 1024.2
20260905235204 29 343 0.0 0.0 0.00 0.00 0.00 25 1024.2
20260905234659 29 102 0.0 0.0 0.00 0.00 0.00 26 1024.2
20260905234154 30 207 0.0 0.0 0.00 0.00 0.00 25 1024.1
20260905233649 28 168 0.0 3.2 0.00 0.00 0.00 25 1024.2
20260905233149 28 166 0.0 0.0 0.00 0.00 0.00 27 1024.1
20260905232644 29 181 1.6 4.8 0.00 0.00 0.00 26 1024.2
20260905232140 30 163 0.0 0.0 0.00 0.00 0.00 25 1023.9
20260905231634 30 146 0.0 0.0 0.00 0.00 0.00 25 1024.1
20260905231131 31 151 0.0 0.0 0.00 0.00 0.00 23 1023.9
20260905230627 31 157 0.0 0.0 0.00 0.00 0.00 22 1023.9
20260905230125 31 215 0.0 0.0 0.00 0.00 0.00 23 1024.1
20260905225618 30 37 0.0 0.0 0.00 0.00 0.00 23 1024.1
20260905225108 31 50 0.0 0.0 0.00 0.00 0.00 22 1023.9
20260905224607 31 50 0.0 0.0 0.00 0.00 0.00 22 1024.1
20260905224107 31 48 0.0 0.0 0.00 0.00 0.00 20 1023.8
20260905223604 31 343 0.0 0.0 0.00 0.00 0.00 21 1024.1
20260905223100 30 52 0.0 0.0 0.00 0.00 0.00 21 1023.9
20260905222600 30 53 0.0 0.0 0.00 0.00 0.00 23 1023.9
20260905222055 30 41 0.0 0.0 0.00 0.00 0.00 23 1024.1
20260905221551 30 40 0.0 0.0 0.00 0.00 0.00 23 1024.2
20260905221047 30 61 0.0 0.0 0.00 0.00 0.00 23 1024.1
20260905220543 30 315 0.0 0.0 0.00 0.00 0.00 22 1024.1
20260905220039 31 37 0.0 0.0 0.00 0.00 0.00 21 1023.9
20260905215538 31 67 0.0 0.0 0.00 0.00 0.00 22 1023.9
20260905215034 31 51 0.0 0.0 0.00 0.00 0.00 21 1024.1